Little Pigeon at Sevierville [ USA-TNN ]

Edit Gauge

Current Conditions

Reading of "n/a" = frozen gauge or gauge error.
Reading Trend Type Updated
88 cfs 13 cfs/hr Flow 01h31m
1.15 ft 0.06 ft/hr Feet Stage 01h31m

Station Description

AW Gauge ID: 50462
Source: tva
Station: ls006
Enabled yes
Data is courtesy of TVA. These provisional data have not been reviewed or edited, and may be subject to significant change. Source Gauge's Page

Information

Gauge History

Times listed in GMT 24h, ET and PT hours provided for convenience Graphs in GMT. Readings of "n/a" constitute a frozen gauge or gauge error.
Reading Updated (GMT) Eastern Pacific Comment
1.15 10/17/2019 00:59:44 Oct 16 08:59 pm Oct 16 5:59 pm
1.09 10/17/2019 00:00:00 Oct 16 08:00 pm Oct 16 5:00 pm
1.03 10/16/2019 22:58:08 Oct 16 06:58 pm Oct 16 3:58 pm
1.04 10/16/2019 21:58:24 Oct 16 05:58 pm Oct 16 2:58 pm
1.07 10/16/2019 20:58:40 Oct 16 04:58 pm Oct 16 1:58 pm
1.12 10/16/2019 19:58:56 Oct 16 03:58 pm Oct 16 12:58 pm
1.14 10/16/2019 18:59:12 Oct 16 02:59 pm Oct 16 11:59 am
1.14 10/16/2019 17:59:28 Oct 16 01:59 pm Oct 16 10:59 am
1.13 10/16/2019 16:59:44 Oct 16 12:59 pm Oct 16 9:59 am
1.15 10/16/2019 14:58:08 Oct 16 10:58 am Oct 16 7:58 am
1.19 10/16/2019 13:58:24 Oct 16 09:58 am Oct 16 6:58 am
1.23 10/16/2019 12:58:40 Oct 16 08:58 am Oct 16 5:58 am
1.20 10/16/2019 11:58:56 Oct 16 07:58 am Oct 16 4:58 am
1.12 10/16/2019 10:59:12 Oct 16 06:59 am Oct 16 3:59 am
1.12 10/16/2019 09:59:28 Oct 16 05:59 am Oct 16 2:59 am
1.09 10/16/2019 08:59:44 Oct 16 04:59 am Oct 16 1:59 am
1.06 10/16/2019 08:00:00 Oct 16 04:00 am Oct 16 1:00 am
1.06 10/16/2019 06:58:08 Oct 16 02:58 am Oct 15 11:58 pm
1.06 10/16/2019 05:58:24 Oct 16 01:58 am Oct 15 10:58 pm
1.06 10/16/2019 04:58:40 Oct 16 12:58 am Oct 15 9:58 pm
1.06 10/16/2019 03:58:56 Oct 15 11:58 pm Oct 15 8:58 pm
1.06 10/16/2019 02:59:12 Oct 15 10:59 pm Oct 15 7:59 pm
1.06 10/16/2019 01:59:28 Oct 15 09:59 pm Oct 15 6:59 pm
1.05 10/16/2019 00:59:44 Oct 15 08:59 pm Oct 15 5:59 pm
1.00 10/16/2019 00:00:00 Oct 15 08:00 pm Oct 15 5:00 pm
0.93 10/15/2019 22:58:08 Oct 15 06:58 pm Oct 15 3:58 pm
0.95 10/15/2019 21:58:24 Oct 15 05:58 pm Oct 15 2:58 pm
1.00 10/15/2019 20:58:40 Oct 15 04:58 pm Oct 15 1:58 pm
1.05 10/15/2019 19:58:56 Oct 15 03:58 pm Oct 15 12:58 pm
1.06 10/15/2019 18:59:12 Oct 15 02:59 pm Oct 15 11:59 am
1.07 10/15/2019 17:59:28 Oct 15 01:59 pm Oct 15 10:59 am
1.07 10/15/2019 16:59:44 Oct 15 12:59 pm Oct 15 9:59 am
1.06 10/15/2019 14:58:08 Oct 15 10:58 am Oct 15 7:58 am
1.06 10/15/2019 13:58:24 Oct 15 09:58 am Oct 15 6:58 am
1.07 10/15/2019 12:58:40 Oct 15 08:58 am Oct 15 5:58 am
1.07 10/15/2019 11:58:56 Oct 15 07:58 am Oct 15 4:58 am
1.07 10/15/2019 10:59:12 Oct 15 06:59 am Oct 15 3:59 am
1.07 10/15/2019 09:59:28 Oct 15 05:59 am Oct 15 2:59 am
1.07 10/15/2019 08:59:44 Oct 15 04:59 am Oct 15 1:59 am
1.07 10/15/2019 08:00:00 Oct 15 04:00 am Oct 15 1:00 am
1.07 10/15/2019 06:58:08 Oct 15 02:58 am Oct 14 11:58 pm
1.07 10/15/2019 05:58:24 Oct 15 01:58 am Oct 14 10:58 pm
1.07 10/15/2019 04:58:40 Oct 15 12:58 am Oct 14 9:58 pm
1.07 10/15/2019 03:58:56 Oct 14 11:58 pm Oct 14 8:58 pm
1.07 10/15/2019 02:59:12 Oct 14 10:59 pm Oct 14 7:59 pm
1.06 10/15/2019 01:59:28 Oct 14 09:59 pm Oct 14 6:59 pm
1.04 10/15/2019 00:59:44 Oct 14 08:59 pm Oct 14 5:59 pm
0.99 10/15/2019 00:00:00 Oct 14 08:00 pm Oct 14 5:00 pm
1.00 10/14/2019 22:58:08 Oct 14 06:58 pm Oct 14 3:58 pm
1.05 10/14/2019 21:58:24 Oct 14 05:58 pm Oct 14 2:58 pm
1.07 10/14/2019 20:58:40 Oct 14 04:58 pm Oct 14 1:58 pm
1.07 10/14/2019 19:58:56 Oct 14 03:58 pm Oct 14 12:58 pm
1.07 10/14/2019 18:59:12 Oct 14 02:59 pm Oct 14 11:59 am
1.07 10/14/2019 17:59:28 Oct 14 01:59 pm Oct 14 10:59 am
1.08 10/14/2019 16:59:44 Oct 14 12:59 pm Oct 14 9:59 am
1.10 10/14/2019 14:58:08 Oct 14 10:58 am Oct 14 7:58 am
1.10 10/14/2019 13:58:24 Oct 14 09:58 am Oct 14 6:58 am
1.06 10/14/2019 12:58:40 Oct 14 08:58 am Oct 14 5:58 am
1.05 10/14/2019 11:58:56 Oct 14 07:58 am Oct 14 4:58 am
1.05 10/14/2019 10:59:12 Oct 14 06:59 am Oct 14 3:59 am
1.05 10/14/2019 09:59:28 Oct 14 05:59 am Oct 14 2:59 am
1.05 10/14/2019 08:59:44 Oct 14 04:59 am Oct 14 1:59 am
1.05 10/14/2019 08:00:00 Oct 14 04:00 am Oct 14 1:00 am
1.05 10/14/2019 06:58:08 Oct 14 02:58 am Oct 13 11:58 pm
1.05 10/14/2019 05:58:24 Oct 14 01:58 am Oct 13 10:58 pm
1.04 10/14/2019 04:58:40 Oct 14 12:58 am Oct 13 9:58 pm
1.02 10/14/2019 03:58:56 Oct 13 11:58 pm Oct 13 8:58 pm
0.98 10/14/2019 02:59:12 Oct 13 10:59 pm Oct 13 7:59 pm
0.99 10/14/2019 01:59:28 Oct 13 09:59 pm Oct 13 6:59 pm
1.06 10/13/2019 12:58:40 Oct 13 08:58 am Oct 13 5:58 am
1.06 10/13/2019 11:58:56 Oct 13 07:58 am Oct 13 4:58 am
1.06 10/13/2019 10:59:12 Oct 13 06:59 am Oct 13 3:59 am
1.06 10/13/2019 09:59:28 Oct 13 05:59 am Oct 13 2:59 am
1.06 10/13/2019 08:59:44 Oct 13 04:59 am Oct 13 1:59 am
1.05 10/13/2019 08:00:00 Oct 13 04:00 am Oct 13 1:00 am
1.06 10/13/2019 06:58:08 Oct 13 02:58 am Oct 12 11:58 pm
1.06 10/13/2019 05:58:24 Oct 13 01:58 am Oct 12 10:58 pm
1.06 10/13/2019 04:58:40 Oct 13 12:58 am Oct 12 9:58 pm
1.06 10/13/2019 03:58:56 Oct 12 11:58 pm Oct 12 8:58 pm
1.06 10/13/2019 02:59:12 Oct 12 10:59 pm Oct 12 7:59 pm
1.06 10/13/2019 01:59:28 Oct 12 09:59 pm Oct 12 6:59 pm
1.06 10/13/2019 00:59:44 Oct 12 08:59 pm Oct 12 5:59 pm
1.06 10/13/2019 00:00:00 Oct 12 08:00 pm Oct 12 5:00 pm
1.06 10/12/2019 22:58:08 Oct 12 06:58 pm Oct 12 3:58 pm
1.06 10/12/2019 21:58:24 Oct 12 05:58 pm Oct 12 2:58 pm
1.06 10/12/2019 20:58:40 Oct 12 04:58 pm Oct 12 1:58 pm
1.07 10/12/2019 19:58:56 Oct 12 03:58 pm Oct 12 12:58 pm
1.07 10/12/2019 18:59:12 Oct 12 02:59 pm Oct 12 11:59 am
1.07 10/12/2019 17:59:28 Oct 12 01:59 pm Oct 12 10:59 am
1.07 10/12/2019 16:59:44 Oct 12 12:59 pm Oct 12 9:59 am
1.10 10/12/2019 14:58:08 Oct 12 10:58 am Oct 12 7:58 am
1.11 10/12/2019 13:58:24 Oct 12 09:58 am Oct 12 6:58 am
1.12 10/12/2019 12:58:40 Oct 12 08:58 am Oct 12 5:58 am
1.11 10/12/2019 11:58:56 Oct 12 07:58 am Oct 12 4:58 am
1.11 10/12/2019 10:59:12 Oct 12 06:59 am Oct 12 3:59 am
1.12 10/12/2019 09:59:28 Oct 12 05:59 am Oct 12 2:59 am
1.11 10/12/2019 08:59:44 Oct 12 04:59 am Oct 12 1:59 am
1.12 10/12/2019 08:00:00 Oct 12 04:00 am Oct 12 1:00 am
1.12 10/12/2019 06:58:08 Oct 12 02:58 am Oct 11 11:58 pm
1.12 10/12/2019 05:58:24 Oct 12 01:58 am Oct 11 10:58 pm
1.12 10/12/2019 04:58:40 Oct 12 12:58 am Oct 11 9:58 pm
1.12 10/12/2019 03:58:56 Oct 11 11:58 pm Oct 11 8:58 pm
1.12 10/12/2019 02:59:12 Oct 11 10:59 pm Oct 11 7:59 pm
1.12 10/12/2019 01:59:28 Oct 11 09:59 pm Oct 11 6:59 pm
1.12 10/12/2019 00:59:44 Oct 11 08:59 pm Oct 11 5:59 pm
1.10 10/12/2019 00:00:00 Oct 11 08:00 pm Oct 11 5:00 pm
1.03 10/11/2019 22:58:08 Oct 11 06:58 pm Oct 11 3:58 pm
0.99 10/11/2019 21:58:24 Oct 11 05:58 pm Oct 11 2:58 pm
1.03 10/11/2019 20:58:40 Oct 11 04:58 pm Oct 11 1:58 pm
1.09 10/11/2019 19:58:56 Oct 11 03:58 pm Oct 11 12:58 pm
1.14 10/11/2019 18:59:12 Oct 11 02:59 pm Oct 11 11:59 am
1.15 10/11/2019 17:59:28 Oct 11 01:59 pm Oct 11 10:59 am
1.16 10/11/2019 16:59:44 Oct 11 12:59 pm Oct 11 9:59 am
1.15 10/11/2019 14:58:08 Oct 11 10:58 am Oct 11 7:58 am
1.15 10/11/2019 13:58:24 Oct 11 09:58 am Oct 11 6:58 am
1.16 10/11/2019 12:58:40 Oct 11 08:58 am Oct 11 5:58 am
1.15 10/11/2019 11:58:56 Oct 11 07:58 am Oct 11 4:58 am
1.16 10/11/2019 10:59:12 Oct 11 06:59 am Oct 11 3:59 am
1.16 10/11/2019 09:59:28 Oct 11 05:59 am Oct 11 2:59 am
1.16 10/11/2019 08:59:44 Oct 11 04:59 am Oct 11 1:59 am
1.16 10/11/2019 08:00:00 Oct 11 04:00 am Oct 11 1:00 am
1.16 10/11/2019 06:58:08 Oct 11 02:58 am Oct 10 11:58 pm
1.16 10/11/2019 05:58:24 Oct 11 01:58 am Oct 10 10:58 pm
1.16 10/11/2019 04:58:40 Oct 11 12:58 am Oct 10 9:58 pm
1.16 10/11/2019 03:58:56 Oct 10 11:58 pm Oct 10 8:58 pm
1.16 10/11/2019 02:59:12 Oct 10 10:59 pm Oct 10 7:59 pm
1.16 10/11/2019 01:59:28 Oct 10 09:59 pm Oct 10 6:59 pm
1.13 10/11/2019 00:59:44 Oct 10 08:59 pm Oct 10 5:59 pm
1.03 10/11/2019 00:00:00 Oct 10 08:00 pm Oct 10 5:00 pm
0.98 10/10/2019 22:58:08 Oct 10 06:58 pm Oct 10 3:58 pm
1.02 10/10/2019 21:58:24 Oct 10 05:58 pm Oct 10 2:58 pm
1.07 10/10/2019 20:58:40 Oct 10 04:58 pm Oct 10 1:58 pm
1.13 10/10/2019 19:58:56 Oct 10 03:58 pm Oct 10 12:58 pm
1.17 10/10/2019 18:59:12 Oct 10 02:59 pm Oct 10 11:59 am
1.16 10/10/2019 17:59:28 Oct 10 01:59 pm Oct 10 10:59 am
1.16 10/10/2019 16:59:44 Oct 10 12:59 pm Oct 10 9:59 am
1.13 10/10/2019 14:58:08 Oct 10 10:58 am Oct 10 7:58 am
1.13 10/10/2019 13:58:24 Oct 10 09:58 am Oct 10 6:58 am
1.13 10/10/2019 12:58:40 Oct 10 08:58 am Oct 10 5:58 am
1.13 10/10/2019 11:58:56 Oct 10 07:58 am Oct 10 4:58 am
1.13 10/10/2019 10:59:12 Oct 10 06:59 am Oct 10 3:59 am
1.14 10/10/2019 09:59:28 Oct 10 05:59 am Oct 10 2:59 am
1.13 10/10/2019 08:59:44 Oct 10 04:59 am Oct 10 1:59 am
1.14 10/10/2019 08:00:00 Oct 10 04:00 am Oct 10 1:00 am
1.14 10/10/2019 06:58:08 Oct 10 02:58 am Oct 9 11:58 pm
1.14 10/10/2019 05:58:24 Oct 10 01:58 am Oct 9 10:58 pm
1.14 10/10/2019 04:58:40 Oct 10 12:58 am Oct 9 9:58 pm
1.14 10/10/2019 03:58:56 Oct 9 11:58 pm Oct 9 8:58 pm
1.14 10/10/2019 02:59:12 Oct 9 10:59 pm Oct 9 7:59 pm
1.14 10/10/2019 01:59:28 Oct 9 09:59 pm Oct 9 6:59 pm
1.14 10/10/2019 00:59:44 Oct 9 08:59 pm Oct 9 5:59 pm
1.15 10/10/2019 00:00:00 Oct 9 08:00 pm Oct 9 5:00 pm
1.17 10/09/2019 22:58:08 Oct 9 06:58 pm Oct 9 3:58 pm
1.18 10/09/2019 21:58:24 Oct 9 05:58 pm Oct 9 2:58 pm
1.19 10/09/2019 20:58:40 Oct 9 04:58 pm Oct 9 1:58 pm
1.19 10/09/2019 19:58:56 Oct 9 03:58 pm Oct 9 12:58 pm
1.19 10/09/2019 18:59:12 Oct 9 02:59 pm Oct 9 11:59 am
1.19 10/09/2019 17:59:28 Oct 9 01:59 pm Oct 9 10:59 am
1.19 10/09/2019 16:59:44 Oct 9 12:59 pm Oct 9 9:59 am
1.20 10/09/2019 14:58:08 Oct 9 10:58 am Oct 9 7:58 am
1.20 10/09/2019 13:58:24 Oct 9 09:58 am Oct 9 6:58 am
1.20 10/09/2019 12:58:40 Oct 9 08:58 am Oct 9 5:58 am
1.20 10/09/2019 11:58:56 Oct 9 07:58 am Oct 9 4:58 am
1.21 10/09/2019 10:59:12 Oct 9 06:59 am Oct 9 3:59 am
1.21 10/09/2019 09:59:28 Oct 9 05:59 am Oct 9 2:59 am
1.21 10/09/2019 08:59:44 Oct 9 04:59 am Oct 9 1:59 am
1.20 10/09/2019 08:00:00 Oct 9 04:00 am Oct 9 1:00 am
1.19 10/09/2019 06:58:08 Oct 9 02:58 am Oct 8 11:58 pm
1.16 10/09/2019 05:58:24 Oct 9 01:58 am Oct 8 10:58 pm
1.14 10/09/2019 04:58:40 Oct 9 12:58 am Oct 8 9:58 pm
1.13 10/09/2019 03:58:56 Oct 8 11:58 pm Oct 8 8:58 pm
1.13 10/09/2019 02:59:12 Oct 8 10:59 pm Oct 8 7:59 pm
1.13 10/09/2019 01:59:28 Oct 8 09:59 pm Oct 8 6:59 pm
1.13 10/09/2019 00:59:44 Oct 8 08:59 pm Oct 8 5:59 pm
1.13 10/09/2019 00:00:00 Oct 8 08:00 pm Oct 8 5:00 pm
1.13 10/08/2019 22:58:08 Oct 8 06:58 pm Oct 8 3:58 pm
1.12 10/08/2019 21:58:24 Oct 8 05:58 pm Oct 8 2:58 pm
1.09 10/08/2019 20:58:40 Oct 8 04:58 pm Oct 8 1:58 pm
1.07 10/08/2019 19:58:56 Oct 8 03:58 pm Oct 8 12:58 pm
1.06 10/08/2019 18:59:12 Oct 8 02:59 pm Oct 8 11:59 am
1.05 10/08/2019 17:59:28 Oct 8 01:59 pm Oct 8 10:59 am
1.05 10/08/2019 16:59:44 Oct 8 12:59 pm Oct 8 9:59 am
1.05 10/08/2019 14:58:08 Oct 8 10:58 am Oct 8 7:58 am
1.05 10/08/2019 13:58:24 Oct 8 09:58 am Oct 8 6:58 am
1.06 10/08/2019 12:58:40 Oct 8 08:58 am Oct 8 5:58 am
1.06 10/08/2019 11:58:56 Oct 8 07:58 am Oct 8 4:58 am
1.06 10/08/2019 10:59:12 Oct 8 06:59 am Oct 8 3:59 am
1.06 10/08/2019 09:59:28 Oct 8 05:59 am Oct 8 2:59 am
1.05 10/08/2019 08:59:44 Oct 8 04:59 am Oct 8 1:59 am
1.05 10/08/2019 08:00:00 Oct 8 04:00 am Oct 8 1:00 am
1.05 10/08/2019 06:58:08 Oct 8 02:58 am Oct 7 11:58 pm
1.05 10/08/2019 05:58:24 Oct 8 01:58 am Oct 7 10:58 pm
1.05 10/08/2019 04:58:40 Oct 8 12:58 am Oct 7 9:58 pm
1.05 10/08/2019 03:58:56 Oct 7 11:58 pm Oct 7 8:58 pm
1.05 10/08/2019 02:59:12 Oct 7 10:59 pm Oct 7 7:59 pm
1.05 10/08/2019 01:59:28 Oct 7 09:59 pm Oct 7 6:59 pm
1.02 10/07/2019 01:59:28 Oct 6 09:59 pm Oct 6 6:59 pm
1.01 10/07/2019 00:59:44 Oct 6 08:59 pm Oct 6 5:59 pm
1.02 10/07/2019 00:00:00 Oct 6 08:00 pm Oct 6 5:00 pm
1.02 10/06/2019 22:58:08 Oct 6 06:58 pm Oct 6 3:58 pm
1.02 10/06/2019 21:58:24 Oct 6 05:58 pm Oct 6 2:58 pm
1.01 10/06/2019 20:58:40 Oct 6 04:58 pm Oct 6 1:58 pm
1.02 10/06/2019 19:58:56 Oct 6 03:58 pm Oct 6 12:58 pm
1.02 10/06/2019 18:59:12 Oct 6 02:59 pm Oct 6 11:59 am
1.02 10/06/2019 17:59:28 Oct 6 01:59 pm Oct 6 10:59 am
1.02 10/06/2019 16:59:44 Oct 6 12:59 pm Oct 6 9:59 am
1.02 10/06/2019 14:58:08 Oct 6 10:58 am Oct 6 7:58 am
1.02 10/06/2019 13:58:24 Oct 6 09:58 am Oct 6 6:58 am
1.02 10/06/2019 12:58:40 Oct 6 08:58 am Oct 6 5:58 am
1.01 10/06/2019 11:58:56 Oct 6 07:58 am Oct 6 4:58 am
1.01 10/06/2019 10:59:12 Oct 6 06:59 am Oct 6 3:59 am
1.01 10/06/2019 09:59:28 Oct 6 05:59 am Oct 6 2:59 am
1.01 10/06/2019 08:59:44 Oct 6 04:59 am Oct 6 1:59 am
1.01 10/06/2019 08:00:00 Oct 6 04:00 am Oct 6 1:00 am
1.02 10/06/2019 06:58:08 Oct 6 02:58 am Oct 5 11:58 pm
1.01 10/06/2019 05:58:24 Oct 6 01:58 am Oct 5 10:58 pm
1.02 10/06/2019 04:58:40 Oct 6 12:58 am Oct 5 9:58 pm
1.02 10/06/2019 03:58:56 Oct 5 11:58 pm Oct 5 8:58 pm
1.02 10/06/2019 02:59:12 Oct 5 10:59 pm Oct 5 7:59 pm
1.02 10/06/2019 01:59:28 Oct 5 09:59 pm Oct 5 6:59 pm
1.03 10/05/2019 01:59:28 Oct 4 09:59 pm Oct 4 6:59 pm
1.03 10/05/2019 00:59:44 Oct 4 08:59 pm Oct 4 5:59 pm
1.01 10/05/2019 00:00:00 Oct 4 08:00 pm Oct 4 5:00 pm
1.01 10/04/2019 22:58:08 Oct 4 06:58 pm Oct 4 3:58 pm
1.00 10/04/2019 21:58:24 Oct 4 05:58 pm Oct 4 2:58 pm
1.00 10/04/2019 20:58:40 Oct 4 04:58 pm Oct 4 1:58 pm
1.00 10/04/2019 19:58:56 Oct 4 03:58 pm Oct 4 12:58 pm
0.99 10/04/2019 18:59:12 Oct 4 02:59 pm Oct 4 11:59 am
0.97 10/04/2019 17:59:28 Oct 4 01:59 pm Oct 4 10:59 am
0.97 10/04/2019 16:59:44 Oct 4 12:59 pm Oct 4 9:59 am
1.02 10/04/2019 14:58:08 Oct 4 10:58 am Oct 4 7:58 am
1.06 10/04/2019 13:58:24 Oct 4 09:58 am Oct 4 6:58 am
1.07 10/04/2019 12:58:40 Oct 4 08:58 am Oct 4 5:58 am
1.07 10/04/2019 11:58:56 Oct 4 07:58 am Oct 4 4:58 am
1.06 10/04/2019 10:59:12 Oct 4 06:59 am Oct 4 3:59 am
1.07 10/04/2019 09:59:28 Oct 4 05:59 am Oct 4 2:59 am
1.06 10/04/2019 08:59:44 Oct 4 04:59 am Oct 4 1:59 am
1.06 10/04/2019 08:00:00 Oct 4 04:00 am Oct 4 1:00 am
1.07 10/04/2019 06:58:08 Oct 4 02:58 am Oct 3 11:58 pm
1.07 10/04/2019 05:58:24 Oct 4 01:58 am Oct 3 10:58 pm
1.07 10/04/2019 04:58:40 Oct 4 12:58 am Oct 3 9:58 pm
1.07 10/04/2019 03:58:56 Oct 3 11:58 pm Oct 3 8:58 pm
1.07 10/04/2019 02:59:12 Oct 3 10:59 pm Oct 3 7:59 pm
1.07 10/04/2019 01:59:28 Oct 3 09:59 pm Oct 3 6:59 pm
1.07 10/04/2019 00:59:44 Oct 3 08:59 pm Oct 3 5:59 pm
1.07 10/04/2019 00:00:00 Oct 3 08:00 pm Oct 3 5:00 pm
1.07 10/03/2019 22:58:08 Oct 3 06:58 pm Oct 3 3:58 pm
1.07 10/03/2019 21:58:24 Oct 3 05:58 pm Oct 3 2:58 pm
1.06 10/03/2019 20:58:40 Oct 3 04:58 pm Oct 3 1:58 pm
1.06 10/03/2019 19:58:56 Oct 3 03:58 pm Oct 3 12:58 pm
1.07 10/03/2019 18:59:12 Oct 3 02:59 pm Oct 3 11:59 am
1.07 10/03/2019 17:59:28 Oct 3 01:59 pm Oct 3 10:59 am
1.07 10/03/2019 16:59:44 Oct 3 12:59 pm Oct 3 9:59 am
1.08 10/03/2019 14:58:08 Oct 3 10:58 am Oct 3 7:58 am
1.07 10/03/2019 13:58:24 Oct 3 09:58 am Oct 3 6:58 am
1.08 10/03/2019 12:58:40 Oct 3 08:58 am Oct 3 5:58 am
1.08 10/03/2019 11:58:56 Oct 3 07:58 am Oct 3 4:58 am
1.08 10/03/2019 10:59:12 Oct 3 06:59 am Oct 3 3:59 am
1.08 10/03/2019 09:59:28 Oct 3 05:59 am Oct 3 2:59 am
1.08 10/03/2019 08:59:44 Oct 3 04:59 am Oct 3 1:59 am
1.08 10/03/2019 08:00:00 Oct 3 04:00 am Oct 3 1:00 am
1.08 10/03/2019 06:58:08 Oct 3 02:58 am Oct 2 11:58 pm
1.08 10/03/2019 05:58:24 Oct 3 01:58 am Oct 2 10:58 pm
1.08 10/03/2019 04:58:40 Oct 3 12:58 am Oct 2 9:58 pm
1.08 10/03/2019 03:58:56 Oct 2 11:58 pm Oct 2 8:58 pm
1.08 10/03/2019 02:59:12 Oct 2 10:59 pm Oct 2 7:59 pm
1.08 10/03/2019 01:59:28 Oct 2 09:59 pm Oct 2 6:59 pm
1.08 10/03/2019 00:59:44 Oct 2 08:59 pm Oct 2 5:59 pm
1.08 10/03/2019 00:00:00 Oct 2 08:00 pm Oct 2 5:00 pm
1.08 10/02/2019 22:58:08 Oct 2 06:58 pm Oct 2 3:58 pm
1.08 10/02/2019 21:58:24 Oct 2 05:58 pm Oct 2 2:58 pm
1.08 10/02/2019 20:58:40 Oct 2 04:58 pm Oct 2 1:58 pm
1.09 10/02/2019 19:58:56 Oct 2 03:58 pm Oct 2 12:58 pm
1.09 10/02/2019 18:59:12 Oct 2 02:59 pm Oct 2 11:59 am
1.09 10/02/2019 17:59:28 Oct 2 01:59 pm Oct 2 10:59 am
1.09 10/02/2019 16:59:44 Oct 2 12:59 pm Oct 2 9:59 am
1.09 10/02/2019 14:58:08 Oct 2 10:58 am Oct 2 7:58 am
1.10 10/02/2019 13:58:24 Oct 2 09:58 am Oct 2 6:58 am
1.09 10/02/2019 12:58:40 Oct 2 08:58 am Oct 2 5:58 am
1.10 10/02/2019 11:58:56 Oct 2 07:58 am Oct 2 4:58 am
1.10 10/02/2019 10:59:12 Oct 2 06:59 am Oct 2 3:59 am
1.10 10/02/2019 09:59:28 Oct 2 05:59 am Oct 2 2:59 am
1.10 10/02/2019 08:59:44 Oct 2 04:59 am Oct 2 1:59 am
1.10 10/02/2019 08:00:00 Oct 2 04:00 am Oct 2 1:00 am
1.10 10/02/2019 06:58:08 Oct 2 02:58 am Oct 1 11:58 pm
1.10 10/02/2019 05:58:24 Oct 2 01:58 am Oct 1 10:58 pm
1.10 10/02/2019 04:58:40 Oct 2 12:58 am Oct 1 9:58 pm
1.10 10/02/2019 03:58:56 Oct 1 11:58 pm Oct 1 8:58 pm
1.10 10/02/2019 02:59:12 Oct 1 10:59 pm Oct 1 7:59 pm
1.10 10/02/2019 01:59:28 Oct 1 09:59 pm Oct 1 6:59 pm
1.11 10/02/2019 00:59:44 Oct 1 08:59 pm Oct 1 5:59 pm
1.11 10/02/2019 00:00:00 Oct 1 08:00 pm Oct 1 5:00 pm
1.11 10/01/2019 22:58:08 Oct 1 06:58 pm Oct 1 3:58 pm
1.11 10/01/2019 21:58:24 Oct 1 05:58 pm Oct 1 2:58 pm
1.11 10/01/2019 20:58:40 Oct 1 04:58 pm Oct 1 1:58 pm
1.11 10/01/2019 19:58:56 Oct 1 03:58 pm Oct 1 12:58 pm
1.11 10/01/2019 18:59:12 Oct 1 02:59 pm Oct 1 11:59 am
1.11 10/01/2019 17:59:28 Oct 1 01:59 pm Oct 1 10:59 am
1.12 10/01/2019 16:59:44 Oct 1 12:59 pm Oct 1 9:59 am
1.12 10/01/2019 14:58:08 Oct 1 10:58 am Oct 1 7:58 am

Gauge History

Times listed in GMT 24h, ET and PT hours provided for convenience Graphs in GMT. Readings of "n/a" constitute a frozen gauge or gauge error.
Reading Updated (GMT) Eastern Pacific Comment
88.00 10/17/2019 00:59:44 Oct 16 08:59 pm Oct 16 5:59 pm
75.00 10/17/2019 00:00:00 Oct 16 08:00 pm Oct 16 5:00 pm
64.00 10/16/2019 22:58:08 Oct 16 06:58 pm Oct 16 3:58 pm
66.00 10/16/2019 21:58:24 Oct 16 05:58 pm Oct 16 2:58 pm
71.00 10/16/2019 20:58:40 Oct 16 04:58 pm Oct 16 1:58 pm
81.00 10/16/2019 19:58:56 Oct 16 03:58 pm Oct 16 12:58 pm
85.00 10/16/2019 18:59:12 Oct 16 02:59 pm Oct 16 11:59 am
85.00 10/16/2019 17:59:28 Oct 16 01:59 pm Oct 16 10:59 am
83.00 10/16/2019 16:59:44 Oct 16 12:59 pm Oct 16 9:59 am
88.00 10/16/2019 14:58:08 Oct 16 10:58 am Oct 16 7:58 am
97.00 10/16/2019 13:58:24 Oct 16 09:58 am Oct 16 6:58 am
107.00 10/16/2019 12:58:40 Oct 16 08:58 am Oct 16 5:58 am
99.00 10/16/2019 11:58:56 Oct 16 07:58 am Oct 16 4:58 am
81.00 10/16/2019 10:59:12 Oct 16 06:59 am Oct 16 3:59 am
81.00 10/16/2019 09:59:28 Oct 16 05:59 am Oct 16 2:59 am
75.00 10/16/2019 08:59:44 Oct 16 04:59 am Oct 16 1:59 am
69.00 10/16/2019 08:00:00 Oct 16 04:00 am Oct 16 1:00 am
69.00 10/16/2019 06:58:08 Oct 16 02:58 am Oct 15 11:58 pm
69.00 10/16/2019 05:58:24 Oct 16 01:58 am Oct 15 10:58 pm
69.00 10/16/2019 04:58:40 Oct 16 12:58 am Oct 15 9:58 pm
69.00 10/16/2019 03:58:56 Oct 15 11:58 pm Oct 15 8:58 pm
69.00 10/16/2019 02:59:12 Oct 15 10:59 pm Oct 15 7:59 pm
69.00 10/16/2019 01:59:28 Oct 15 09:59 pm Oct 15 6:59 pm
68.00 10/16/2019 00:59:44 Oct 15 08:59 pm Oct 15 5:59 pm
59.00 10/16/2019 00:00:00 Oct 15 08:00 pm Oct 15 5:00 pm
47.00 10/15/2019 22:58:08 Oct 15 06:58 pm Oct 15 3:58 pm
50.00 10/15/2019 21:58:24 Oct 15 05:58 pm Oct 15 2:58 pm
59.00 10/15/2019 20:58:40 Oct 15 04:58 pm Oct 15 1:58 pm
68.00 10/15/2019 19:58:56 Oct 15 03:58 pm Oct 15 12:58 pm
69.00 10/15/2019 18:59:12 Oct 15 02:59 pm Oct 15 11:59 am
71.00 10/15/2019 17:59:28 Oct 15 01:59 pm Oct 15 10:59 am
71.00 10/15/2019 16:59:44 Oct 15 12:59 pm Oct 15 9:59 am
69.00 10/15/2019 14:58:08 Oct 15 10:58 am Oct 15 7:58 am
69.00 10/15/2019 13:58:24 Oct 15 09:58 am Oct 15 6:58 am
71.00 10/15/2019 12:58:40 Oct 15 08:58 am Oct 15 5:58 am
71.00 10/15/2019 11:58:56 Oct 15 07:58 am Oct 15 4:58 am
71.00 10/15/2019 10:59:12 Oct 15 06:59 am Oct 15 3:59 am
71.00 10/15/2019 09:59:28 Oct 15 05:59 am Oct 15 2:59 am
71.00 10/15/2019 08:59:44 Oct 15 04:59 am Oct 15 1:59 am
71.00 10/15/2019 08:00:00 Oct 15 04:00 am Oct 15 1:00 am
71.00 10/15/2019 06:58:08 Oct 15 02:58 am Oct 14 11:58 pm
71.00 10/15/2019 05:58:24 Oct 15 01:58 am Oct 14 10:58 pm
71.00 10/15/2019 04:58:40 Oct 15 12:58 am Oct 14 9:58 pm
71.00 10/15/2019 03:58:56 Oct 14 11:58 pm Oct 14 8:58 pm
71.00 10/15/2019 02:59:12 Oct 14 10:59 pm Oct 14 7:59 pm
69.00 10/15/2019 01:59:28 Oct 14 09:59 pm Oct 14 6:59 pm
66.00 10/15/2019 00:59:44 Oct 14 08:59 pm Oct 14 5:59 pm
57.00 10/15/2019 00:00:00 Oct 14 08:00 pm Oct 14 5:00 pm
59.00 10/14/2019 22:58:08 Oct 14 06:58 pm Oct 14 3:58 pm
68.00 10/14/2019 21:58:24 Oct 14 05:58 pm Oct 14 2:58 pm
71.00 10/14/2019 20:58:40 Oct 14 04:58 pm Oct 14 1:58 pm
71.00 10/14/2019 19:58:56 Oct 14 03:58 pm Oct 14 12:58 pm
71.00 10/14/2019 18:59:12 Oct 14 02:59 pm Oct 14 11:59 am
71.00 10/14/2019 17:59:28 Oct 14 01:59 pm Oct 14 10:59 am
73.00 10/14/2019 16:59:44 Oct 14 12:59 pm Oct 14 9:59 am
77.00 10/14/2019 14:58:08 Oct 14 10:58 am Oct 14 7:58 am
77.00 10/14/2019 13:58:24 Oct 14 09:58 am Oct 14 6:58 am
69.00 10/14/2019 12:58:40 Oct 14 08:58 am Oct 14 5:58 am
68.00 10/14/2019 11:58:56 Oct 14 07:58 am Oct 14 4:58 am
68.00 10/14/2019 10:59:12 Oct 14 06:59 am Oct 14 3:59 am
68.00 10/14/2019 09:59:28 Oct 14 05:59 am Oct 14 2:59 am
68.00 10/14/2019 08:59:44 Oct 14 04:59 am Oct 14 1:59 am
68.00 10/14/2019 08:00:00 Oct 14 04:00 am Oct 14 1:00 am
68.00 10/14/2019 06:58:08 Oct 14 02:58 am Oct 13 11:58 pm
68.00 10/14/2019 05:58:24 Oct 14 01:58 am Oct 13 10:58 pm
66.00 10/14/2019 04:58:40 Oct 14 12:58 am Oct 13 9:58 pm
62.00 10/14/2019 03:58:56 Oct 13 11:58 pm Oct 13 8:58 pm
55.00 10/14/2019 02:59:12 Oct 13 10:59 pm Oct 13 7:59 pm
57.00 10/14/2019 01:59:28 Oct 13 09:59 pm Oct 13 6:59 pm
69.00 10/13/2019 12:58:40 Oct 13 08:58 am Oct 13 5:58 am
69.00 10/13/2019 11:58:56 Oct 13 07:58 am Oct 13 4:58 am
69.00 10/13/2019 10:59:12 Oct 13 06:59 am Oct 13 3:59 am
69.00 10/13/2019 09:59:28 Oct 13 05:59 am Oct 13 2:59 am
69.00 10/13/2019 08:59:44 Oct 13 04:59 am Oct 13 1:59 am
68.00 10/13/2019 08:00:00 Oct 13 04:00 am Oct 13 1:00 am
69.00 10/13/2019 06:58:08 Oct 13 02:58 am Oct 12 11:58 pm
69.00 10/13/2019 05:58:24 Oct 13 01:58 am Oct 12 10:58 pm
69.00 10/13/2019 04:58:40 Oct 13 12:58 am Oct 12 9:58 pm
69.00 10/13/2019 03:58:56 Oct 12 11:58 pm Oct 12 8:58 pm
69.00 10/13/2019 02:59:12 Oct 12 10:59 pm Oct 12 7:59 pm
69.00 10/13/2019 01:59:28 Oct 12 09:59 pm Oct 12 6:59 pm
69.00 10/13/2019 00:59:44 Oct 12 08:59 pm Oct 12 5:59 pm
69.00 10/13/2019 00:00:00 Oct 12 08:00 pm Oct 12 5:00 pm
69.00 10/12/2019 22:58:08 Oct 12 06:58 pm Oct 12 3:58 pm
69.00 10/12/2019 21:58:24 Oct 12 05:58 pm Oct 12 2:58 pm
69.00 10/12/2019 20:58:40 Oct 12 04:58 pm Oct 12 1:58 pm
71.00 10/12/2019 19:58:56 Oct 12 03:58 pm Oct 12 12:58 pm
71.00 10/12/2019 18:59:12 Oct 12 02:59 pm Oct 12 11:59 am
71.00 10/12/2019 17:59:28 Oct 12 01:59 pm Oct 12 10:59 am
71.00 10/12/2019 16:59:44 Oct 12 12:59 pm Oct 12 9:59 am
77.00 10/12/2019 14:58:08 Oct 12 10:58 am Oct 12 7:58 am
79.00 10/12/2019 13:58:24 Oct 12 09:58 am Oct 12 6:58 am
81.00 10/12/2019 12:58:40 Oct 12 08:58 am Oct 12 5:58 am
79.00 10/12/2019 11:58:56 Oct 12 07:58 am Oct 12 4:58 am
79.00 10/12/2019 10:59:12 Oct 12 06:59 am Oct 12 3:59 am
81.00 10/12/2019 09:59:28 Oct 12 05:59 am Oct 12 2:59 am
79.00 10/12/2019 08:59:44 Oct 12 04:59 am Oct 12 1:59 am
81.00 10/12/2019 08:00:00 Oct 12 04:00 am Oct 12 1:00 am
81.00 10/12/2019 06:58:08 Oct 12 02:58 am Oct 11 11:58 pm
81.00 10/12/2019 05:58:24 Oct 12 01:58 am Oct 11 10:58 pm
81.00 10/12/2019 04:58:40 Oct 12 12:58 am Oct 11 9:58 pm
81.00 10/12/2019 03:58:56 Oct 11 11:58 pm Oct 11 8:58 pm
81.00 10/12/2019 02:59:12 Oct 11 10:59 pm Oct 11 7:59 pm
81.00 10/12/2019 01:59:28 Oct 11 09:59 pm Oct 11 6:59 pm
81.00 10/12/2019 00:59:44 Oct 11 08:59 pm Oct 11 5:59 pm
77.00 10/12/2019 00:00:00 Oct 11 08:00 pm Oct 11 5:00 pm
64.00 10/11/2019 22:58:08 Oct 11 06:58 pm Oct 11 3:58 pm
57.00 10/11/2019 21:58:24 Oct 11 05:58 pm Oct 11 2:58 pm
64.00 10/11/2019 20:58:40 Oct 11 04:58 pm Oct 11 1:58 pm
75.00 10/11/2019 19:58:56 Oct 11 03:58 pm Oct 11 12:58 pm
85.00 10/11/2019 18:59:12 Oct 11 02:59 pm Oct 11 11:59 am
88.00 10/11/2019 17:59:28 Oct 11 01:59 pm Oct 11 10:59 am
90.00 10/11/2019 16:59:44 Oct 11 12:59 pm Oct 11 9:59 am
88.00 10/11/2019 14:58:08 Oct 11 10:58 am Oct 11 7:58 am
88.00 10/11/2019 13:58:24 Oct 11 09:58 am Oct 11 6:58 am
90.00 10/11/2019 12:58:40 Oct 11 08:58 am Oct 11 5:58 am
88.00 10/11/2019 11:58:56 Oct 11 07:58 am Oct 11 4:58 am
90.00 10/11/2019 10:59:12 Oct 11 06:59 am Oct 11 3:59 am
90.00 10/11/2019 09:59:28 Oct 11 05:59 am Oct 11 2:59 am
90.00 10/11/2019 08:59:44 Oct 11 04:59 am Oct 11 1:59 am
90.00 10/11/2019 08:00:00 Oct 11 04:00 am Oct 11 1:00 am
90.00 10/11/2019 06:58:08 Oct 11 02:58 am Oct 10 11:58 pm
90.00 10/11/2019 05:58:24 Oct 11 01:58 am Oct 10 10:58 pm
90.00 10/11/2019 04:58:40 Oct 11 12:58 am Oct 10 9:58 pm
90.00 10/11/2019 03:58:56 Oct 10 11:58 pm Oct 10 8:58 pm
90.00 10/11/2019 02:59:12 Oct 10 10:59 pm Oct 10 7:59 pm
90.00 10/11/2019 01:59:28 Oct 10 09:59 pm Oct 10 6:59 pm
83.00 10/11/2019 00:59:44 Oct 10 08:59 pm Oct 10 5:59 pm
64.00 10/11/2019 00:00:00 Oct 10 08:00 pm Oct 10 5:00 pm
55.00 10/10/2019 22:58:08 Oct 10 06:58 pm Oct 10 3:58 pm
62.00 10/10/2019 21:58:24 Oct 10 05:58 pm Oct 10 2:58 pm
71.00 10/10/2019 20:58:40 Oct 10 04:58 pm Oct 10 1:58 pm
83.00 10/10/2019 19:58:56 Oct 10 03:58 pm Oct 10 12:58 pm
92.00 10/10/2019 18:59:12 Oct 10 02:59 pm Oct 10 11:59 am
90.00 10/10/2019 17:59:28 Oct 10 01:59 pm Oct 10 10:59 am
90.00 10/10/2019 16:59:44 Oct 10 12:59 pm Oct 10 9:59 am
83.00 10/10/2019 14:58:08 Oct 10 10:58 am Oct 10 7:58 am
83.00 10/10/2019 13:58:24 Oct 10 09:58 am Oct 10 6:58 am
83.00 10/10/2019 12:58:40 Oct 10 08:58 am Oct 10 5:58 am
83.00 10/10/2019 11:58:56 Oct 10 07:58 am Oct 10 4:58 am
83.00 10/10/2019 10:59:12 Oct 10 06:59 am Oct 10 3:59 am
85.00 10/10/2019 09:59:28 Oct 10 05:59 am Oct 10 2:59 am
83.00 10/10/2019 08:59:44 Oct 10 04:59 am Oct 10 1:59 am
85.00 10/10/2019 08:00:00 Oct 10 04:00 am Oct 10 1:00 am
85.00 10/10/2019 06:58:08 Oct 10 02:58 am Oct 9 11:58 pm
85.00 10/10/2019 05:58:24 Oct 10 01:58 am Oct 9 10:58 pm
85.00 10/10/2019 04:58:40 Oct 10 12:58 am Oct 9 9:58 pm
85.00 10/10/2019 03:58:56 Oct 9 11:58 pm Oct 9 8:58 pm
85.00 10/10/2019 02:59:12 Oct 9 10:59 pm Oct 9 7:59 pm
85.00 10/10/2019 01:59:28 Oct 9 09:59 pm Oct 9 6:59 pm
85.00 10/10/2019 00:59:44 Oct 9 08:59 pm Oct 9 5:59 pm
88.00 10/10/2019 00:00:00 Oct 9 08:00 pm Oct 9 5:00 pm
92.00 10/09/2019 22:58:08 Oct 9 06:58 pm Oct 9 3:58 pm
94.00 10/09/2019 21:58:24 Oct 9 05:58 pm Oct 9 2:58 pm
97.00 10/09/2019 20:58:40 Oct 9 04:58 pm Oct 9 1:58 pm
97.00 10/09/2019 19:58:56 Oct 9 03:58 pm Oct 9 12:58 pm
97.00 10/09/2019 18:59:12 Oct 9 02:59 pm Oct 9 11:59 am
97.00 10/09/2019 17:59:28 Oct 9 01:59 pm Oct 9 10:59 am
97.00 10/09/2019 16:59:44 Oct 9 12:59 pm Oct 9 9:59 am
99.00 10/09/2019 14:58:08 Oct 9 10:58 am Oct 9 7:58 am
99.00 10/09/2019 13:58:24 Oct 9 09:58 am Oct 9 6:58 am
99.00 10/09/2019 12:58:40 Oct 9 08:58 am Oct 9 5:58 am
99.00 10/09/2019 11:58:56 Oct 9 07:58 am Oct 9 4:58 am
101.00 10/09/2019 10:59:12 Oct 9 06:59 am Oct 9 3:59 am
101.00 10/09/2019 09:59:28 Oct 9 05:59 am Oct 9 2:59 am
101.00 10/09/2019 08:59:44 Oct 9 04:59 am Oct 9 1:59 am
99.00 10/09/2019 08:00:00 Oct 9 04:00 am Oct 9 1:00 am
97.00 10/09/2019 06:58:08 Oct 9 02:58 am Oct 8 11:58 pm
90.00 10/09/2019 05:58:24 Oct 9 01:58 am Oct 8 10:58 pm
85.00 10/09/2019 04:58:40 Oct 9 12:58 am Oct 8 9:58 pm
83.00 10/09/2019 03:58:56 Oct 8 11:58 pm Oct 8 8:58 pm
83.00 10/09/2019 02:59:12 Oct 8 10:59 pm Oct 8 7:59 pm
83.00 10/09/2019 01:59:28 Oct 8 09:59 pm Oct 8 6:59 pm
83.00 10/09/2019 00:59:44 Oct 8 08:59 pm Oct 8 5:59 pm
83.00 10/09/2019 00:00:00 Oct 8 08:00 pm Oct 8 5:00 pm
83.00 10/08/2019 22:58:08 Oct 8 06:58 pm Oct 8 3:58 pm
81.00 10/08/2019 21:58:24 Oct 8 05:58 pm Oct 8 2:58 pm
75.00 10/08/2019 20:58:40 Oct 8 04:58 pm Oct 8 1:58 pm
71.00 10/08/2019 19:58:56 Oct 8 03:58 pm Oct 8 12:58 pm
69.00 10/08/2019 18:59:12 Oct 8 02:59 pm Oct 8 11:59 am
68.00 10/08/2019 17:59:28 Oct 8 01:59 pm Oct 8 10:59 am
68.00 10/08/2019 16:59:44 Oct 8 12:59 pm Oct 8 9:59 am
68.00 10/08/2019 14:58:08 Oct 8 10:58 am Oct 8 7:58 am
68.00 10/08/2019 13:58:24 Oct 8 09:58 am Oct 8 6:58 am
69.00 10/08/2019 12:58:40 Oct 8 08:58 am Oct 8 5:58 am
69.00 10/08/2019 11:58:56 Oct 8 07:58 am Oct 8 4:58 am
69.00 10/08/2019 10:59:12 Oct 8 06:59 am Oct 8 3:59 am
69.00 10/08/2019 09:59:28 Oct 8 05:59 am Oct 8 2:59 am
68.00 10/08/2019 08:59:44 Oct 8 04:59 am Oct 8 1:59 am
68.00 10/08/2019 08:00:00 Oct 8 04:00 am Oct 8 1:00 am
68.00 10/08/2019 06:58:08 Oct 8 02:58 am Oct 7 11:58 pm
68.00 10/08/2019 05:58:24 Oct 8 01:58 am Oct 7 10:58 pm
68.00 10/08/2019 04:58:40 Oct 8 12:58 am Oct 7 9:58 pm
68.00 10/08/2019 03:58:56 Oct 7 11:58 pm Oct 7 8:58 pm
68.00 10/08/2019 02:59:12 Oct 7 10:59 pm Oct 7 7:59 pm
68.00 10/08/2019 01:59:28 Oct 7 09:59 pm Oct 7 6:59 pm
62.00 10/07/2019 01:59:28 Oct 6 09:59 pm Oct 6 6:59 pm
61.00 10/07/2019 00:59:44 Oct 6 08:59 pm Oct 6 5:59 pm
62.00 10/07/2019 00:00:00 Oct 6 08:00 pm Oct 6 5:00 pm
62.00 10/06/2019 22:58:08 Oct 6 06:58 pm Oct 6 3:58 pm
62.00 10/06/2019 21:58:24 Oct 6 05:58 pm Oct 6 2:58 pm
61.00 10/06/2019 20:58:40 Oct 6 04:58 pm Oct 6 1:58 pm
62.00 10/06/2019 19:58:56 Oct 6 03:58 pm Oct 6 12:58 pm
62.00 10/06/2019 18:59:12 Oct 6 02:59 pm Oct 6 11:59 am
62.00 10/06/2019 17:59:28 Oct 6 01:59 pm Oct 6 10:59 am
62.00 10/06/2019 16:59:44 Oct 6 12:59 pm Oct 6 9:59 am
62.00 10/06/2019 14:58:08 Oct 6 10:58 am Oct 6 7:58 am
62.00 10/06/2019 13:58:24 Oct 6 09:58 am Oct 6 6:58 am
62.00 10/06/2019 12:58:40 Oct 6 08:58 am Oct 6 5:58 am
61.00 10/06/2019 11:58:56 Oct 6 07:58 am Oct 6 4:58 am
61.00 10/06/2019 10:59:12 Oct 6 06:59 am Oct 6 3:59 am
61.00 10/06/2019 09:59:28 Oct 6 05:59 am Oct 6 2:59 am
61.00 10/06/2019 08:59:44 Oct 6 04:59 am Oct 6 1:59 am
61.00 10/06/2019 08:00:00 Oct 6 04:00 am Oct 6 1:00 am
62.00 10/06/2019 06:58:08 Oct 6 02:58 am Oct 5 11:58 pm
61.00 10/06/2019 05:58:24 Oct 6 01:58 am Oct 5 10:58 pm
62.00 10/06/2019 04:58:40 Oct 6 12:58 am Oct 5 9:58 pm
62.00 10/06/2019 03:58:56 Oct 5 11:58 pm Oct 5 8:58 pm
62.00 10/06/2019 02:59:12 Oct 5 10:59 pm Oct 5 7:59 pm
62.00 10/06/2019 01:59:28 Oct 5 09:59 pm Oct 5 6:59 pm
64.00 10/05/2019 01:59:28 Oct 4 09:59 pm Oct 4 6:59 pm
64.00 10/05/2019 00:59:44 Oct 4 08:59 pm Oct 4 5:59 pm
61.00 10/05/2019 00:00:00 Oct 4 08:00 pm Oct 4 5:00 pm
61.00 10/04/2019 22:58:08 Oct 4 06:58 pm Oct 4 3:58 pm
59.00 10/04/2019 21:58:24 Oct 4 05:58 pm Oct 4 2:58 pm
59.00 10/04/2019 20:58:40 Oct 4 04:58 pm Oct 4 1:58 pm
59.00 10/04/2019 19:58:56 Oct 4 03:58 pm Oct 4 12:58 pm
57.00 10/04/2019 18:59:12 Oct 4 02:59 pm Oct 4 11:59 am
54.00 10/04/2019 17:59:28 Oct 4 01:59 pm Oct 4 10:59 am
54.00 10/04/2019 16:59:44 Oct 4 12:59 pm Oct 4 9:59 am
62.00 10/04/2019 14:58:08 Oct 4 10:58 am Oct 4 7:58 am
69.00 10/04/2019 13:58:24 Oct 4 09:58 am Oct 4 6:58 am
71.00 10/04/2019 12:58:40 Oct 4 08:58 am Oct 4 5:58 am
71.00 10/04/2019 11:58:56 Oct 4 07:58 am Oct 4 4:58 am
69.00 10/04/2019 10:59:12 Oct 4 06:59 am Oct 4 3:59 am
71.00 10/04/2019 09:59:28 Oct 4 05:59 am Oct 4 2:59 am
69.00 10/04/2019 08:59:44 Oct 4 04:59 am Oct 4 1:59 am
69.00 10/04/2019 08:00:00 Oct 4 04:00 am Oct 4 1:00 am
71.00 10/04/2019 06:58:08 Oct 4 02:58 am Oct 3 11:58 pm
71.00 10/04/2019 05:58:24 Oct 4 01:58 am Oct 3 10:58 pm
71.00 10/04/2019 04:58:40 Oct 4 12:58 am Oct 3 9:58 pm
71.00 10/04/2019 03:58:56 Oct 3 11:58 pm Oct 3 8:58 pm
71.00 10/04/2019 02:59:12 Oct 3 10:59 pm Oct 3 7:59 pm
71.00 10/04/2019 01:59:28 Oct 3 09:59 pm Oct 3 6:59 pm
71.00 10/04/2019 00:59:44 Oct 3 08:59 pm Oct 3 5:59 pm
71.00 10/04/2019 00:00:00 Oct 3 08:00 pm Oct 3 5:00 pm
71.00 10/03/2019 22:58:08 Oct 3 06:58 pm Oct 3 3:58 pm
71.00 10/03/2019 21:58:24 Oct 3 05:58 pm Oct 3 2:58 pm
69.00 10/03/2019 20:58:40 Oct 3 04:58 pm Oct 3 1:58 pm
69.00 10/03/2019 19:58:56 Oct 3 03:58 pm Oct 3 12:58 pm
71.00 10/03/2019 18:59:12 Oct 3 02:59 pm Oct 3 11:59 am
71.00 10/03/2019 17:59:28 Oct 3 01:59 pm Oct 3 10:59 am
71.00 10/03/2019 16:59:44 Oct 3 12:59 pm Oct 3 9:59 am
73.00 10/03/2019 14:58:08 Oct 3 10:58 am Oct 3 7:58 am
71.00 10/03/2019 13:58:24 Oct 3 09:58 am Oct 3 6:58 am
73.00 10/03/2019 12:58:40 Oct 3 08:58 am Oct 3 5:58 am
73.00 10/03/2019 11:58:56 Oct 3 07:58 am Oct 3 4:58 am
73.00 10/03/2019 10:59:12 Oct 3 06:59 am Oct 3 3:59 am
73.00 10/03/2019 09:59:28 Oct 3 05:59 am Oct 3 2:59 am
73.00 10/03/2019 08:59:44 Oct 3 04:59 am Oct 3 1:59 am
73.00 10/03/2019 08:00:00 Oct 3 04:00 am Oct 3 1:00 am
73.00 10/03/2019 06:58:08 Oct 3 02:58 am Oct 2 11:58 pm
73.00 10/03/2019 05:58:24 Oct 3 01:58 am Oct 2 10:58 pm
73.00 10/03/2019 04:58:40 Oct 3 12:58 am Oct 2 9:58 pm
73.00 10/03/2019 03:58:56 Oct 2 11:58 pm Oct 2 8:58 pm
73.00 10/03/2019 02:59:12 Oct 2 10:59 pm Oct 2 7:59 pm
73.00 10/03/2019 01:59:28 Oct 2 09:59 pm Oct 2 6:59 pm
73.00 10/03/2019 00:59:44 Oct 2 08:59 pm Oct 2 5:59 pm
73.00 10/03/2019 00:00:00 Oct 2 08:00 pm Oct 2 5:00 pm
73.00 10/02/2019 22:58:08 Oct 2 06:58 pm Oct 2 3:58 pm
73.00 10/02/2019 21:58:24 Oct 2 05:58 pm Oct 2 2:58 pm
73.00 10/02/2019 20:58:40 Oct 2 04:58 pm Oct 2 1:58 pm
75.00 10/02/2019 19:58:56 Oct 2 03:58 pm Oct 2 12:58 pm
75.00 10/02/2019 18:59:12 Oct 2 02:59 pm Oct 2 11:59 am
75.00 10/02/2019 17:59:28 Oct 2 01:59 pm Oct 2 10:59 am
75.00 10/02/2019 16:59:44 Oct 2 12:59 pm Oct 2 9:59 am
75.00 10/02/2019 14:58:08 Oct 2 10:58 am Oct 2 7:58 am
77.00 10/02/2019 13:58:24 Oct 2 09:58 am Oct 2 6:58 am
75.00 10/02/2019 12:58:40 Oct 2 08:58 am Oct 2 5:58 am
77.00 10/02/2019 11:58:56 Oct 2 07:58 am Oct 2 4:58 am
77.00 10/02/2019 10:59:12 Oct 2 06:59 am Oct 2 3:59 am
77.00 10/02/2019 09:59:28 Oct 2 05:59 am Oct 2 2:59 am
77.00 10/02/2019 08:59:44 Oct 2 04:59 am Oct 2 1:59 am
77.00 10/02/2019 08:00:00 Oct 2 04:00 am Oct 2 1:00 am
77.00 10/02/2019 06:58:08 Oct 2 02:58 am Oct 1 11:58 pm
77.00 10/02/2019 05:58:24 Oct 2 01:58 am Oct 1 10:58 pm
77.00 10/02/2019 04:58:40 Oct 2 12:58 am Oct 1 9:58 pm
77.00 10/02/2019 03:58:56 Oct 1 11:58 pm Oct 1 8:58 pm
77.00 10/02/2019 02:59:12 Oct 1 10:59 pm Oct 1 7:59 pm
77.00 10/02/2019 01:59:28 Oct 1 09:59 pm Oct 1 6:59 pm
79.00 10/02/2019 00:59:44 Oct 1 08:59 pm Oct 1 5:59 pm
79.00 10/02/2019 00:00:00 Oct 1 08:00 pm Oct 1 5:00 pm
79.00 10/01/2019 22:58:08 Oct 1 06:58 pm Oct 1 3:58 pm
79.00 10/01/2019 21:58:24 Oct 1 05:58 pm Oct 1 2:58 pm
79.00 10/01/2019 20:58:40 Oct 1 04:58 pm Oct 1 1:58 pm
79.00 10/01/2019 19:58:56 Oct 1 03:58 pm Oct 1 12:58 pm
79.00 10/01/2019 18:59:12 Oct 1 02:59 pm Oct 1 11:59 am
79.00 10/01/2019 17:59:28 Oct 1 01:59 pm Oct 1 10:59 am
81.00 10/01/2019 16:59:44 Oct 1 12:59 pm Oct 1 9:59 am
81.00 10/01/2019 14:58:08 Oct 1 10:58 am Oct 1 7:58 am

Reports give the public a chance to report on river conditions throughout the country as well as log the history of a river.

No Reports Filed

Linked Reaches

River Name/Section Class Level   Updated
Little Pigeon, Middle Prong [TN] 4. Highway 73 to Richardson Cove II-III 88 cfs
+ 13 cfs/hr
L3-
Below Recom.

01h31m